When you browse on this site, cookies collect data to enhance your experience and personalize the content and advertising you see.
Visit our Privacy Policy to learn more. By continuing to use the site, you agree to this use of cookies and data.
  • In Österreich
  • Länderverzeichnis
  • Für 7 Tage
  • Wassertemperatur
  • Satellitenkarten
  • Wetterkarte
  • News
  • Widgets
  • user-avatar
    Anmelden

    Stündliche Wetter Commerce City

    Heute, 24 April, Mittwoch

    Zeit Temperatur Niederschläge Wind Luftdruck Luftfeuchtigkeit
    00:00 +12°C° 0 mm 2 m/S 629 mmHg 48%
    01:00 +10°C° 0 mm 2 m/S 629 mmHg 48%
    02:00 +10°C° 0 mm 2 m/S 629 mmHg 49%
    03:00 +10°C° 0 mm 2 m/S 629 mmHg 50%
    04:00 +9°C° 0 mm 2 m/S 628 mmHg 50%
    05:00 +9°C° 0 mm 2 m/S 628 mmHg 51%
    06:00 +12°C° 0 mm 2 m/S 629 mmHg 45%
    07:00 +14°C° 0 mm 1 m/S 630 mmHg 40%
    08:00 +18°C° 0 mm 1 m/S 631 mmHg 34%
    09:00 +19°C° 0 mm 1 m/S 631 mmHg 30%
    10:00 +21°C° 0 mm 1 m/S 631 mmHg 25%
    11:00 +22°C° 0 mm 1 m/S 631 mmHg 21%
    12:00 +23°C° 0 mm 1 m/S 631 mmHg 21%
    13:00 +24°C° 0 mm 1 m/S 631 mmHg 20%
    14:00 +24°C° 0 mm 1 m/S 630 mmHg 20%
    15:00 +24°C° 0 mm 1 m/S 630 mmHg 21%
    16:00 +24°C° 0 mm 1 m/S 630 mmHg 22%
    17:00 +24°C° 0 mm 1 m/S 630 mmHg 23%
    18:00 +22°C° 0.1 mm 1 m/S 629 mmHg 28%
    19:00 +21°C° 0.1 mm 1 m/S 629 mmHg 34%
    20:00 +19°C° 0.1 mm 1 m/S 629 mmHg 40%
    21:00 +17°C° 0.1 mm 2 m/S 629 mmHg 41%
    22:00 +16°C° 0.1 mm 2 m/S 630 mmHg 42%
    23:00 +14°C° 0.1 mm 3 m/S 630 mmHg 43%

    Morgen, 25 April, Donnerstag

    Zeit Temperatur Niederschläge Wind Luftdruck Luftfeuchtigkeit
    00:00 +13°C° 0.1 mm 4 m/S 630 mmHg 55%
    01:00 +10°C° 0.1 mm 5 m/S 630 mmHg 67%
    02:00 +9°C° 0.1 mm 6 m/S 630 mmHg 80%
    03:00 +10°C° 0 mm 4 m/S 630 mmHg 81%
    04:00 +9°C° 0 mm 3 m/S 630 mmHg 82%
    05:00 +10°C° 0 mm 1 m/S 631 mmHg 83%
    06:00 +11°C° 0 mm 1 m/S 631 mmHg 78%
    07:00 +12°C° 0 mm 1 m/S 632 mmHg 73%
    08:00 +13°C° 0 mm 1 m/S 632 mmHg 68%
    09:00 +14°C° 0 mm 2 m/S 632 mmHg 60%
    10:00 +16°C° 0 mm 2 m/S 633 mmHg 53%
    11:00 +18°C° 0 mm 3 m/S 633 mmHg 45%
    12:00 +20°C° 0 mm 3 m/S 633 mmHg 41%
    13:00 +21°C° 0 mm 4 m/S 633 mmHg 36%
    14:00 +22°C° 0 mm 4 m/S 633 mmHg 32%
    15:00 +22°C° 0 mm 4 m/S 633 mmHg 34%
    16:00 +21°C° 0 mm 5 m/S 632 mmHg 36%
    17:00 +21°C° 0 mm 6 m/S 632 mmHg 37%
    18:00 +19°C° 0 mm 5 m/S 632 mmHg 41%
    19:00 +17°C° 0 mm 5 m/S 632 mmHg 46%
    20:00 +15°C° 0 mm 4 m/S 632 mmHg 50%
    21:00 +15°C° 0 mm 4 m/S 632 mmHg 50%
    22:00 +14°C° 0 mm 4 m/S 632 mmHg 50%
    23:00 +14°C° 0 mm 3 m/S 632 mmHg 51%

    übermorgen, 26 April, Freitag

    Zeit Temperatur Niederschläge Wind Luftdruck Luftfeuchtigkeit
    00:00 +13°C° 0 mm 3 m/S 631 mmHg 51%
    01:00 +13°C° 0 mm 3 m/S 631 mmHg 51%
    02:00 +12°C° 0 mm 3 m/S 630 mmHg 52%
    03:00 +12°C° 0 mm 3 m/S 630 mmHg 52%
    04:00 +12°C° 0 mm 2 m/S 630 mmHg 53%
    05:00 +12°C° 0 mm 2 m/S 629 mmHg 53%
    06:00 +14°C° 0 mm 2 m/S 630 mmHg 48%
    07:00 +16°C° 0 mm 2 m/S 630 mmHg 43%
    08:00 +18°C° 0 mm 2 m/S 631 mmHg 38%
    09:00 +20°C° 0 mm 2 m/S 631 mmHg 33%
    10:00 +23°C° 0 mm 2 m/S 631 mmHg 28%
    11:00 +24°C° 0 mm 2 m/S 631 mmHg 23%
    12:00 +25°C° 0 mm 3 m/S 631 mmHg 22%
    13:00 +26°C° 0 mm 3 m/S 630 mmHg 21%
    14:00 +27°C° 0 mm 4 m/S 630 mmHg 20%
    15:00 +27°C° 0 mm 4 m/S 629 mmHg 21%
    16:00 +26°C° 0 mm 5 m/S 629 mmHg 23%
    17:00 +25°C° 0 mm 5 m/S 628 mmHg 24%
    18:00 +23°C° 0 mm 4 m/S 628 mmHg 27%
    19:00 +21°C° 0 mm 3 m/S 628 mmHg 30%
    20:00 +19°C° 0 mm 2 m/S 627 mmHg 32%
    21:00 +18°C° 0 mm 2 m/S 627 mmHg 34%
    22:00 +17°C° 0 mm 2 m/S 627 mmHg 36%
    23:00 +17°C° 0 mm 3 m/S 627 mmHg 38%

    27 April, Samstag

    Zeit Temperatur Niederschläge Wind Luftdruck Luftfeuchtigkeit
    00:00 +16°C° 0.1 mm 2 m/S 627 mmHg 42%
    01:00 +15°C° 0.1 mm 2 m/S 626 mmHg 46%
    02:00 +14°C° 0.1 mm 2 m/S 626 mmHg 50%
    03:00 +13°C° 0 mm 2 m/S 627 mmHg 48%
    04:00 +12°C° 0 mm 2 m/S 627 mmHg 47%
    05:00 +10°C° 0 mm 3 m/S 627 mmHg 46%
    06:00 +11°C° 0 mm 3 m/S 628 mmHg 39%
    07:00 +12°C° 0 mm 3 m/S 629 mmHg 33%
    08:00 +13°C° 0 mm 4 m/S 630 mmHg 26%
    09:00 +16°C° 0 mm 3 m/S 630 mmHg 22%
    10:00 +17°C° 0 mm 3 m/S 631 mmHg 18%
    11:00 +19°C° 0 mm 3 m/S 631 mmHg 14%
    12:00 +19°C° 0 mm 3 m/S 631 mmHg 14%
    13:00 +20°C° 0 mm 3 m/S 631 mmHg 13%
    14:00 +21°C° 0 mm 2 m/S 631 mmHg 12%
    15:00 +21°C° 0 mm 4 m/S 631 mmHg 15%
    16:00 +20°C° 0 mm 5 m/S 630 mmHg 19%
    17:00 +19°C° 0 mm 6 m/S 630 mmHg 22%
    18:00 +16°C° 0 mm 5 m/S 630 mmHg 27%
    19:00 +14°C° 0 mm 5 m/S 630 mmHg 33%
    20:00 +12°C° 0 mm 4 m/S 630 mmHg 38%
    21:00 +11°C° 0 mm 3 m/S 630 mmHg 39%
    22:00 +11°C° 0 mm 3 m/S 630 mmHg 41%
    23:00 +10°C° 0 mm 2 m/S 630 mmHg 42%

    28 April, Sonntag

    Zeit Temperatur Niederschläge Wind Luftdruck Luftfeuchtigkeit
    00:00 +10°C° 0 mm 2 m/S 630 mmHg 42%
    01:00 +10°C° 0 mm 3 m/S 629 mmHg 42%
    02:00 +9°C° 0 mm 3 m/S 629 mmHg 42%
    03:00 +9°C° 0 mm 2 m/S 629 mmHg 44%
    04:00 +8°C° 0 mm 2 m/S 628 mmHg 45%
    05:00 +8°C° 0 mm 2 m/S 628 mmHg 47%
    06:00 +10°C° 0 mm 2 m/S 628 mmHg 41%
    07:00 +14°C° 0 mm 1 m/S 629 mmHg 35%
    08:00 +16°C° 0 mm 1 m/S 629 mmHg 29%
    09:00 +18°C° 0 mm 2 m/S 629 mmHg 25%
    10:00 +21°C° 0 mm 2 m/S 629 mmHg 20%
    11:00 +24°C° 0 mm 2 m/S 630 mmHg 16%
    12:00 +25°C° 0 mm 3 m/S 629 mmHg 15%
    13:00 +26°C° 0 mm 5 m/S 629 mmHg 14%
    14:00 +27°C° 0 mm 6 m/S 629 mmHg 14%
    15:00 +27°C° 0 mm 5 m/S 628 mmHg 15%
    16:00 +27°C° 0 mm 5 m/S 628 mmHg 16%
    17:00 +26°C° 0 mm 4 m/S 628 mmHg 17%
    18:00 +24°C° 0 mm 3 m/S 627 mmHg 23%
    19:00 +20°C° 0 mm 3 m/S 627 mmHg 28%
    20:00 +18°C° 0 mm 2 m/S 627 mmHg 34%
    21:00 +17°C° 0.2 mm 2 m/S 626 mmHg 42%
    22:00 +16°C° 0.2 mm 2 m/S 626 mmHg 50%
    23:00 +13°C° 0.2 mm 3 m/S 626 mmHg 58%

    29 April, Montag

    Zeit Temperatur Niederschläge Wind Luftdruck Luftfeuchtigkeit
    00:00 +14°C° 0 mm 2 m/S 625 mmHg 62%
    01:00 +13°C° 0 mm 2 m/S 625 mmHg 67%
    02:00 +12°C° 0 mm 1 m/S 625 mmHg 71%
    03:00 +12°C° 0 mm 2 m/S 625 mmHg 70%
    04:00 +10°C° 0 mm 2 m/S 625 mmHg 69%
    05:00 +10°C° 0 mm 2 m/S 625 mmHg 68%
    06:00 +12°C° 0 mm 3 m/S 625 mmHg 61%
    07:00 +14°C° 0 mm 3 m/S 626 mmHg 54%
    08:00 +17°C° 0 mm 3 m/S 626 mmHg 47%
    09:00 +17°C° 0 mm 4 m/S 626 mmHg 46%
    10:00 +17°C° 0 mm 5 m/S 626 mmHg 46%
    11:00 +19°C° 0 mm 6 m/S 626 mmHg 45%
    12:00 +19°C° 0.1 mm 6 m/S 625 mmHg 46%
    13:00 +19°C° 0.1 mm 6 m/S 625 mmHg 47%
    14:00 +19°C° 0.1 mm 6 m/S 624 mmHg 48%
    15:00 +19°C° 0.2 mm 6 m/S 623 mmHg 53%
    16:00 +17°C° 0.2 mm 6 m/S 623 mmHg 57%
    17:00 +16°C° 0.2 mm 6 m/S 623 mmHg 62%
    18:00 +14°C° 1.8 mm 6 m/S 623 mmHg 70%
    19:00 +12°C° 1.8 mm 5 m/S 623 mmHg 78%
    20:00 +10°C° 1.8 mm 5 m/S 623 mmHg 86%
    21:00 +9°C° 1.2 mm 5 m/S 623 mmHg 87%
    22:00 +8°C° 1.2 mm 4 m/S 622 mmHg 88%
    23:00 +8°C° 1.2 mm 4 m/S 622 mmHg 88%
    Mehr zeigen